Location: Gradaro
(45.0833°N, 10.8833°E)
Time: 06:00:08
(UTC+00:00)

FENGYUN 1C DEB - Pass Details

Date: 22 June 2021
Orbit: 744 x 851 km, 99.4° (Epoch: 19 July)

Event Time Altitude Azimuth Distance (km) Brightness Sun altitude
Exits shadow 23:21:07 35° 137° (SE) 1,316 ? -21.5°
Maximum altitude 23:23:18 63° 71° (ENE) 923 ? -21.5°
Drops below altitude 10° 23:28:34 10° 351° (N) 2,405 ? -21.5°
Sets 23:30:53 0° 348° (NNW) 3,324 ? -21.4°
